CAPE
3 7 13 13 10 7 21 7 7 0 0 0 0 0 0 0 0 0 0 0 0 0 0 0 0 0 0 0 0 0 0 0 0 0 0 0 0 0 0 0 0 0 0 0 0 0 0
3 1 5 13 8 15 17 18 11 0 0 0 0 0 0 0 0 0 0 0 0 0 0 0 0 0 0 0 0 0 0 0 0 0 0 0 0 0 0 0 0 0 0 0 0 0 0
4 3 2 6 7 12 19 7 9 0 0 0 0 0 0 0 0 0 0 0 0 0 0 0 0 0 0 0 0 0 0 0 0 0 0 0 0 0 0 0 0 0 0 0 0 0 0
4 3 4 2 4 6 7 5 2 0 0 0 0 0 0 0 0 0 0 0 0 0 0 0 0 0 0 0 0 0 0 0 0 0 0 0 0 0 0 0 0 0 0 0 0 0 0
24 18 3 3 5 5 4 7 4 4 2 1 0 0 0 0 0 0 0 0 0 0 0 0 0 0 0 0 0 0 0 0 0 0 0 0 0 0 0 0 0 0 0 0 0 0 0
6 39 9 2 5 4 6 8 8 12 10 0 0 0 0 0 0 0 0 0 0 0 0 0 0 0 0 0 0 0 0 0 0 0 0 0 0 0 0 0 0 0 0 0 0 0 0
13 5 32 2 6 8 13 12 14 6 3 0 0 0 0 0 0 0 0 0 0 0 0 0 0 0 0 0 0 0 0 0 0 0 0 0 0 0 0 0 0 0 0 0 0 0 0
4 18 32 6 7 12 18 22 18 15 4 0 0 0 0 0 0 0 0 0 0 0 0 0 0 0 0 0 0 0 0 0 0 0 0 0 0 0 0 0 0 0 0 0 0 0 0
4 17 31 6 9 18 26 24 17 2 1 0 0 0 0 0 0 0 0 0 0 0 0 0 0 0 0 0 0 0 0 0 0 0 0 0 0 0 0 0 0 0 0 0 0 0 0
1 29 25 7 14 23 24 25 8 4 1 0 0 0 0 0 0 0 0 0 0 0 0 0 0 0 0 0 0 0 0 0 0 0 0 0 0 0 0 0 0 0 0 0 0 1 4
0 45 14 4 13 17 17 21 7 9 10 3 0 0 0 0 0 0 0 0 0 0 0 0 0 0 0 0 0 0 0 0 0 0 0 0 0 0 0 0 0 0 0 0 1 4 0
63 14 3 8 14 13 20 25 17 12 13 7 0 0 0 0 0 0 0 0 0 0 0 0 0 0 0 0 0 0 0 0 0 0 0 0 0 0 0 0 0 0 0 0 0 0 0
42 0 5 13 17 32 37 32 19 20 4 2 0 0 0 0 0 0 0 0 0 0 0 0 0 0 0 0 0 0 0 0 0 0 0 0 0 0 0 0 0 0 0 0 0 0 0
5 9 19 28 34 45 42 30 24 22 4 7 7 0 0 0 0 0 0 0 0 0 0 0 0 0 0 0 0 0 0 0 0 0 0 0 0 0 0 0 0 0 0 0 0 0 0
39 72 58 65 58 37 29 25 25 7 6 5 2 0 0 0 0 0 0 0 0 0 0 0 0 0 0 0 0 0 0 0 0 0 0 0 0 0 0 0 0 0 0 0 0 0 0
8 9 34 47 46 47 39 25 5 24 25 16 0 0 0 0 0 0 0 0 0 0 0 0 0 0 0 0 0 0 0 0 0 0 0 0 0 0 0 0 0 0 0 0 0 0 16
33 41 37 32 34 29 35 32 20 17 12 0 0 0 0 0 0 0 0 0 0 0 0 0 0 0 0 0 0 0 0 0 0 0 0 0 0 0 0 0 1 0 6 1 105 4 54
27 66 60 57 51 39 33 28 26 15 9 0 0 2 0 0 0 0 0 0 0 0 0 0 0 0 0 0 0 0 0 0 0 0 0 0 1 3 0 0 0 16 15 16 28 1 2
35 67 42 20 18 29 23 21 20 11 0 0 0 0 0 0 0 0 0 0 0 0 0 0 0 0 0 0 0 0 0 0 0 0 0 0 0 0 0 0 0 0 0 4 13 23 10
55 45 58 23 8 19 20 19 14 3 0 0 0 0 0 0 0 0 0 0 0 0 0 0 0 0 0 0 0 0 0 0 0 0 0 0 0 0 0 0 13 7 21 18 7 3 7
55 58 35 20 38 23 22 15 9 0 0 0 0 0 0 0 0 0 0 0 0 0 0 0 0 0 0 0 0 0 0 0 0 0 0 0 0 0 0 0 18 1 9 5 5 9 15
45 24 65 48 31 14 5 4 0 0 0 0 0 0 0 0 0 0 0 0 0 0 0 0 0 0 0 0 0 0 0 0 0 0 0 0 0 0 0 0 40 1 1 0 0 4 34
44 42 36 26 15 9 0 0 0 0 0 0 0 0 0 0 0 0 0 0 0 0 0 0 0 0 0 0 0 0 0 0 0 0 0 0 0 0 0 0 10 0 4 12 4 6 25
23 22 30 30 17 4 0 0 0 0 0 0 0 0 0 0 0 0 0 0 0 0 0 0 0 0 0 0 0 0 0 0 0 0 0 0 0 0 0 0 0 9 0 17 9 7 5
59 40 39 34 11 0 0 0 0 0 0 0 0 0 0 0 0 0 0 0 0 0 0 0 0 0 0 0 0 0 0 0 0 0 0 0 0 0 0 0 0 0 0 5 5 7 11
25 29 21 24 3 0 0 0 0 0 0 0 0 0 0 0 0 0 0 0 0 0 0 0 0 0 0 0 0 0 0 0 0 0 0 0 0 3 0 1 0 0 0 2 14 3 4
19 48 61 40 5 2 5 0 0 0 0 0 0 0 0 0 0 0 0 0 0 0 0 0 0 0 0 0 0 0 0 0 0 0 0 0 0 0 0 0 0 3 0 0 1 3 4
68 78 71 49 15 0 0 0 2 0 0 0 0 0 0 0 0 0 0 0 0 0 0 0 0 0 0 0 0 0 0 0 0 0 8 0 3 0 0 0 0 1 0 1 17 12 4
69 85 77 58 17 0 0 2 7 0 0 0 0 0 0 0 0 0 0 0 0 0 0 0 0 0 0 0 0 0 0 0 0 0 0 0 0 0 2 1 2 4 10 15 18 10 7
CIN
-0 -0 -0 -0 -0 -0 -0 -0 -0 -0 -0 -0 -0 -0 -0 -0 -0 -0 -0 -0 -0 -0 -0 -0 -0 -0 -0 -0 -0 -0 -0 -0 -0 -0 -0 -0 -0 -0 -0 -0 -0 -0 -0 -0 -0 -0 -0
-0 -0 -0 -0 -0 -0 -0 -0 -0 -0 -0 -0 -0 -0 -0 -0 -0 -0 -0 -0 -0 -0 -0 -0 -0 -0 -0 -0 -0 -0 -0 -0 -0 -0 -0 -0 -0 -0 -0 -0 -0 -0 -0 -0 -0 -0 -0
-0 -0 -0 -1 -0 -0 -0 -0 -0 -0 -0 -0 -0 -0 -0 -0 -0 -0 -0 -0 -0 -0 -0 -0 -0 -0 -0 -0 -0 -0 -0 -0 -0 -0 -0 -0 -0 -0 -0 -0 -0 -0 -0 -0 -0 -0 -0
-0 -0 -0 -0 -0 -1 -0 -0 -0 -0 -0 -0 -0 -0 -0 -0 -0 -0 -0 -0 -0 -0 -0 -0 -0 -0 -0 -0 -0 -0 -0 -0 -0 -0 -0 -0 -0 -0 -0 -0 -0 -0 -0 -0 -0 -0 -0
-1 -4 -0 -0 -0 -0 -0 -0 -0 -0 -0 -0 -0 -0 -0 -0 -0 -0 -0 -0 -0 -0 -0 -0 -0 -0 -0 -0 -0 -0 -0 -0 -0 -0 -0 -0 -0 -0 -0 -0 -0 -0 -0 -0 -0 -0 -0
-0 -0 -12 -0 -0 -0 -0 -0 -0 -0 -0 -0 -0 -0 -0 -0 -0 -0 -0 -0 -0 -0 -0 -0 -0 -0 -0 -0 -0 -0 -0 -0 -0 -0 -0 -0 -0 -0 -0 -0 -0 -0 -0 -0 -0 -0 -0
-0 -0 -1 -9 -0 -0 -0 -0 -0 -0 -0 -0 -0 -0 -0 -0 -0 -0 -0 -0 -0 -0 -0 -0 -0 -0 -0 -0 -0 -0 -0 -0 -0 -0 -0 -0 -0 -0 -0 -0 -0 -0 -0 -0 -0 -0 -0
-0 -0 -1 -2 -0 -0 -0 -0 -0 -0 -0 -0 -0 -0 -0 -0 -0 -0 -0 -0 -0 -0 -0 -0 -0 -0 -0 -0 -0 -0 -0 -0 -0 -0 -0 -0 -0 -0 -0 -0 -0 -0 -0 -0 -0 -0 -0
-0 -0 -0 -15 -0 -0 -0 -0 -0 -0 -0 -0 -0 -0 -0 -0 -0 -0 -0 -0 -0 -0 -0 -0 -0 -0 -0 -0 -0 -0 -0 -0 -0 -0 -0 -0 -0 -0 -0 -0 -0 -0 -0 -0 -0 -0 -0
-7 -0 -1 -11 -0 -0 -0 -0 -0 -0 -0 -0 -0 -0 -0 -0 -0 -0 -0 -0 -0 -0 -0 -0 -0 -0 -0 -0 -0 -0 -0 -0 -0 -0 -0 -0 -0 -0 -0 -0 -0 -0 -0 -0 -0 -0 -1
-1 -14 -10 -10 -0 -0 -0 -0 -0 -0 -0 -0 -0 -0 -0 -0 -0 -0 -0 -0 -0 -0 -0 -0 -0 -0 -0 -0 -0 -0 -0 -0 -0 -0 -0 -0 -0 -0 -0 -0 -0 -0 -0 -0 -0 -1 -0
-304 -169 -0 -0 -0 -0 -0 -0 -0 -0 -0 -0 -0 -0 -0 -0 -0 -0 -0 -0 -0 -0 -0 -0 -0 -0 -0 -0 -0 -0 -0 -0 -0 -0 -0 -0 -0 -0 -0 -0 -0 -0 -0 -0 -0 -0 -0
-151 -0 -0 -0 -0 -0 -0 -0 -0 -0 -0 -0 -0 -0 -0 -0 -0 -0 -0 -0 -0 -0 -0 -0 -0 -0 -0 -0 -0 -0 -0 -0 -0 -0 -0 -0 -0 -0 -0 -0 -0 -0 -0 -0 -0 -0 -0
-0 -0 -0 -0 -0 -0 -0 -0 -0 -0 -0 -0 -0 -0 -0 -0 -0 -0 -0 -0 -0 -0 -0 -0 -0 -0 -0 -0 -0 -0 -0 -0 -0 -0 -0 -0 -0 -0 -0 -0 -0 -0 -0 -0 -0 -0 -0
-0 -0 -0 -0 -0 -0 -0 -0 -0 -0 -0 -0 -0 -0 -0 -0 -0 -0 -0 -0 -0 -0 -0 -0 -0 -0 -0 -0 -0 -0 -0 -0 -0 -0 -0 -0 -0 -0 -0 -0 -0 -0 -0 -0 -0 -0 -0
-0 -0 -0 -0 -0 -0 -0 -0 -0 -0 -0 -0 -0 -0 -0 -0 -0 -0 -0 -0 -0 -0 -0 -0 -0 -0 -0 -0 -0 -0 -0 -0 -0 -0 -0 -0 -0 -0 -0 -0 -0 -2 -0 -0 -0 -0 -0
-0 -0 -0 -0 -0 -0 -0 -0 -0 -0 -0 -0 -0 -0 -0 -0 -0 -0 -0 -0 -0 -0 -0 -0 -0 -0 -0 -0 -0 -0 -0 -0 -0 -0 -0 -0 -0 -0 -0 -0 -0 -0 -7 -3 -0 -0 -0
-0 -0 -0 -0 -0 -0 -0 -0 -0 -0 -0 -0 -0 -0 -0 -0 -0 -0 -0 -0 -0 -0 -0 -0 -0 -0 -0 -0 -0 -0 -0 -0 -0 -0 -0 -0 -2 -0 -0 -0 -0 -2 -0 -0 -0 -3 -36
-0 -0 -0 -0 -0 -0 -0 -0 -0 -0 -0 -0 -0 -0 -0 -0 -0 -0 -0 -0 -0 -0 -0 -0 -0 -0 -0 -0 -0 -0 -0 -0 -0 -0 -0 -0 -0 -0 -0 -0 -0 -1 -0 -2 -1 -0 -13
-0 -0 -0 -36 -0 -0 -0 -0 -0 -0 -0 -0 -0 -0 -0 -0 -0 -0 -0 -0 -0 -0 -0 -0 -0 -0 -0 -0 -0 -0 -0 -0 -0 -0 -0 -0 -0 -0 -0 -0 -0 -0 -0 -1 -12 -0 -1
-0 -0 -1 -1 -0 -0 -0 -0 -0 -0 -0 -0 -0 -0 -0 -0 -0 -0 -0 -0 -0 -0 -0 -0 -0 -0 -0 -0 -0 -0 -0 -0 -0 -0 -0 -0 -0 -0 -0 -0 -0 -0 -0 -0 -0 -0 -0
-0 -2 -0 -21 -0 -0 -0 -0 -0 -0 -0 -0 -0 -0 -0 -0 -0 -0 -0 -0 -0 -0 -0 -0 -0 -0 -0 -0 -0 -0 -0 -0 -0 -0 -0 -0 -0 -0 -0 -0 -0 -0 -0 -0 -0 -0 -0
-0 -0 -2 -0 -0 -0 -0 -0 -0 -0 -0 -0 -0 -0 -0 -0 -0 -0 -0 -0 -0 -0 -0 -0 -0 -0 -0 -0 -0 -0 -0 -0 -0 -0 -0 -0 -0 -0 -0 -0 -0 -0 -0 -0 -0 -0 -0
-0 -9 -17 -0 -0 -0 -0 -0 -0 -0 -0 -0 -0 -0 -0 -0 -0 -0 -0 -0 -0 -0 -0 -0 -0 -0 -0 -0 -0 -0 -0 -0 -0 -0 -0 -0 -0 -0 -0 -0 -0 -0 -0 -0 -0 -0 -0
-0 -4 -3 -0 -0 -0 -0 -0 -0 -0 -0 -0 -0 -0 -0 -0 -0 -0 -0 -0 -0 -0 -0 -0 -0 -0 -0 -0 -0 -0 -0 -0 -0 -0 -0 -0 -0 -0 -0 -0 -0 -0 -0 -0 -0 -0 -0
-0 -1 -0 -1 -3 -0 -0 -0 -0 -0 -0 -0 -0 -0 -0 -0 -0 -0 -0 -0 -0 -0 -0 -0 -0 -0 -0 -0 -0 -0 -0 -0 -0 -0 -0 -0 -0 -0 -0 -0 -0 -0 -0 -0 -0 -0 -0
-0 -0 -0 -0 -4 -4 -0 -0 -0 -0 -0 -0 -0 -0 -0 -0 -0 -0 -0 -0 -0 -0 -0 -0 -0 -0 -0 -0 -0 -0 -0 -0 -0 -0 -0 -0 -0 -0 -0 -0 -0 -0 -0 -0 -0 -0 -0
-0 -0 -0 -11 -1 -0 -0 -0 -0 -0 -0 -0 -0 -0 -0 -0 -0 -0 -0 -0 -0 -0 -0 -0 -0 -0 -0 -0 -0 -0 -0 -0 -0 -0 -0 -0 -0 -0 -0 -0 -0 -0 -0 -0 -0 -0 -0
-1 -1 -1 -6 -29 -0 -0 -0 -0 -0 -0 -0 -0 -0 -0 -0 -0 -0 -0 -0 -0 -0 -0 -0 -0 -0 -0 -0 -0 -0 -0 -0 -0 -0 -0 -0 -0 -0 -2 -1 -0 -0 -0 -0 -0 -0 -0
Wind_Speed
26 26 25 23 23 21 21 19 17 15 14 12 10 8 6 5 3 3 5 7 8 10 12 12 13 15 5 4 1 2 9 9 4 6 6 4 5 3 2 3 7 6 3 7 9 10 8
29 29 28 26 25 24 23 20 18 16 14 13 11 9 6 5 3 4 6 8 8 10 11 10 10 10 4 3 2 3 7 4 3 4 4 4 3 0 1 3 2 5 13 14 9 10 12
32 32 30 28 26 26 25 22 19 17 16 14 11 9 7 5 4 7 7 9 10 10 8 7 6 2 3 3 1 6 5 2 1 2 1 1 3 3 2 5 4 5 13 16 9 6 6
32 33 33 31 28 27 26 23 20 19 17 14 11 9 6 4 4 6 9 11 13 12 9 3 3 2 4 1 3 6 1 4 3 3 2 3 4 2 4 3 7 6 5 8 1 5 7
32 35 35 33 31 30 28 24 22 20 17 14 12 9 6 5 3 6 8 11 14 6 5 5 3 1 4 7 2 3 4 3 3 1 1 3 4 4 2 2 4 3 7 7 11 4 7
34 33 33 33 34 32 28 25 24 19 17 15 12 9 6 6 5 7 10 7 6 9 7 2 1 1 4 1 3 5 2 2 2 3 5 4 4 2 3 4 4 5 7 6 12 7 11
39 40 39 36 35 33 31 28 25 22 17 15 11 8 4 5 6 7 5 6 5 3 2 5 1 1 5 6 2 3 3 2 2 4 1 2 0 6 10 10 10 8 11 16 22 21 24
43 42 42 38 36 35 33 30 26 22 19 15 11 7 5 5 5 7 5 4 3 4 1 4 4 6 4 1 2 4 3 1 2 4 3 3 8 10 6 7 11 12 11 23 23 23 19
38 42 39 39 38 35 33 31 26 25 19 15 12 7 4 4 6 2 3 5 3 4 4 1 4 3 3 6 3 5 5 0 2 4 4 6 7 4 5 4 10 17 11 20 19 24 25
31 38 39 38 38 37 33 32 29 24 22 15 13 9 4 2 0 2 1 2 3 3 6 4 3 3 3 3 2 5 3 2 0 4 3 6 4 3 2 6 8 13 6 15 17 12 13
31 36 39 39 38 36 35 31 29 27 21 18 13 9 6 3 5 4 3 4 2 4 0 4 2 3 1 3 1 2 1 3 4 4 5 10 4 4 5 8 5 11 9 12 14 14 11
29 36 39 40 38 37 34 31 27 25 22 18 14 10 8 5 1 2 2 6 4 7 3 1 3 2 3 4 2 5 4 3 2 3 4 11 3 4 7 6 11 14 10 11 4 2 6
33 40 39 38 36 34 32 31 29 23 21 17 13 9 7 4 4 4 3 3 6 4 1 2 3 3 2 2 3 3 3 5 3 6 6 9 4 3 4 4 3 3 4 5 6 2 8
31 37 38 37 36 33 31 29 28 23 18 16 12 9 1 2 3 4 3 5 2 4 4 2 3 3 4 5 3 5 1 2 3 2 4 5 9 2 3 5 7 9 5 2 6 6 18
34 25 31 33 32 30 29 28 25 21 17 15 13 2 2 3 5 1 5 3 4 3 6 5 4 4 3 4 2 3 1 1 1 4 3 5 8 6 13 16 4 1 4 5 6 9 7
27 25 24 26 27 26 25 24 24 20 17 15 3 4 2 5 6 4 4 3 3 3 6 4 4 3 3 2 2 4 2 3 1 1 4 5 9 6 6 3 4 2 5 3 1 5 6
20 21 22 22 22 22 19 19 21 19 17 15 3 4 1 5 4 4 4 3 4 4 5 4 4 4 3 2 2 1 3 4 1 4 2 1 2 11 9 2 5 5 3 3 4 4 5
14 19 22 21 22 21 19 18 17 16 14 5 4 5 1 1 3 1 3 4 5 4 3 3 4 3 3 2 0 2 3 4 3 2 5 2 3 7 13 15 3 1 4 4 4 4 4
15 17 20 20 18 17 15 15 15 15 10 4 4 4 1 2 4 1 2 3 3 4 3 3 3 3 1 2 1 3 3 3 4 5 1 3 2 6 11 4 4 7 6 7 8 4 3
14 15 17 17 17 15 14 13 10 8 9 3 4 5 2 2 1 3 5 4 5 4 4 5 5 4 3 1 3 3 3 3 6 2 5 1 3 7 6 9 5 14 11 12 5 3 6
15 14 15 14 17 14 12 10 8 6 8 4 3 2 4 5 3 4 4 3 5 4 3 4 3 4 4 3 3 3 2 5 3 4 3 2 5 3 9 13 5 13 18 18 10 13 5
18 16 14 15 15 13 11 8 6 5 7 3 4 5 2 3 5 6 2 2 5 4 4 3 5 4 5 5 5 3 2 1 4 3 2 1 4 3 6 6 5 9 14 16 15 15 5
16 16 15 16 15 13 10 7 5 5 3 2 1 2 4 3 3 5 4 5 5 7 5 4 4 3 4 5 4 7 9 6 6 1 2 1 2 3 5 5 7 3 9 8 8 16 7
17 16 15 15 14 12 10 6 6 3 3 3 1 3 5 1 3 4 5 4 7 3 6 2 3 2 2 5 5 2 4 6 6 6 7 2 1 2 5 4 2 3 10 8 7 12 13
16 16 17 16 14 11 9 6 5 3 3 4 2 3 3 4 3 6 7 7 6 5 4 3 1 1 4 4 4 3 3 3 3 3 1 8 2 3 2 3 2 3 7 7 5 9 11
17 15 15 14 12 10 9 6 4 5 7 5 3 0 3 6 0 3 5 3 4 3 2 0 2 3 4 3 3 2 1 2 1 5 5 4 2 3 3 3 1 2 13 12 5 2 13
18 17 15 17 15 12 10 7 7 7 6 4 3 3 4 5 0 1 4 5 5 4 3 1 4 6 3 2 2 1 1 1 1 2 4 3 2 3 4 3 3 9 15 10 2 5 10
19 18 18 16 15 12 9 7 8 9 6 4 1 3 4 4 1 2 2 5 3 3 4 2 4 4 3 4 1 0 1 1 1 1 1 2 3 2 3 2 3 13 4 5 5 3 7
18 16 18 17 15 12 10 8 9 9 6 4 4 3 2 6 3 1 2 1 4 5 6 2 4 2 2 4 2 1 1 2 1 1 3 1 2 2 2 1 4 5 6 5 7 6 6
Wind_Direction
215 216 217 211 209 207 212 199 204 204 210 213 208 213 209 226 262 304 321 329 329 327 331 333 338 340 358 48 177 334 344 345 29 33 46 46 53 46 355 322 322 230 282 309 311 311 289
215 213 211 212 204 206 204 206 201 200 206 208 200 215 219 245 274 301 319 324 322 322 323 333 340 347 23 106 144 359 336 346 50 46 36 46 57 337 232 282 216 305 301 296 300 289 258
213 214 211 208 206 204 201 197 198 198 201 201 206 218 219 242 287 313 321 318 311 305 308 328 341 16 45 158 342 333 320 291 138 131 315 167 140 61 349 286 258 270 302 307 240 238 257
229 213 210 201 201 200 197 195 188 196 197 199 206 217 225 230 295 314 321 317 309 295 275 297 312 65 251 205 268 308 221 296 264 222 186 258 131 178 178 277 347 343 290 341 212 324 259
249 229 209 202 199 195 189 186 183 191 195 192 200 206 225 251 283 300 321 321 324 318 173 153 79 106 278 324 330 320 197 250 309 0 286 269 138 192 18 58 4 302 276 271 314 146 269
241 226 215 202 197 190 184 181 176 183 189 185 191 206 211 260 292 321 330 326 120 77 86 104 127 76 273 78 330 316 278 269 273 355 23 65 56 64 34 94 247 258 271 276 286 264 263
239 228 214 200 194 184 178 173 172 167 184 185 186 201 214 272 309 338 13 86 49 23 281 193 213 287 326 306 293 292 269 28 44 66 94 16 151 213 220 213 242 259 269 272 269 280 291
236 226 212 192 182 180 172 170 168 167 175 175 165 194 223 272 306 325 113 153 162 173 291 200 265 294 259 146 326 302 99 20 196 269 128 28 242 241 221 215 240 253 259 264 276 276 276
234 219 200 185 177 174 165 163 163 158 165 170 156 173 233 289 311 77 171 147 118 91 100 250 202 208 202 145 215 275 158 230 257 326 204 195 235 166 186 235 252 256 244 268 266 295 286
220 213 191 175 169 164 159 157 155 154 157 160 163 169 188 260 306 157 108 19 106 91 84 192 229 248 125 172 304 213 215 162 352 261 289 236 274 234 217 233 213 279 223 268 276 287 286
207 192 173 162 160 157 151 155 155 153 153 155 173 158 182 178 145 140 170 123 134 57 88 155 155 135 110 115 319 317 297 83 213 237 97 262 264 233 230 232 165 238 263 277 270 272 307
201 168 156 155 155 149 147 149 152 150 149 161 157 157 146 123 50 119 113 115 60 50 196 139 72 45 72 22 6 317 6 25 228 295 218 258 254 224 225 247 218 256 295 260 244 197 264
172 153 148 144 141 144 143 143 144 150 152 148 153 159 161 134 157 137 144 67 59 147 138 113 110 75 112 358 344 46 339 11 53 355 331 309 268 260 183 244 259 93 14 323 342 332 256
138 139 140 138 137 138 139 142 135 142 144 148 149 142 147 158 119 152 89 66 152 132 96 129 104 106 100 34 16 335 282 7 35 47 301 337 326 309 131 223 292 295 156 230 272 301 305
53 82 108 115 122 125 127 128 131 142 145 145 135 71 81 217 168 56 80 103 185 154 131 137 104 90 31 45 137 358 265 211 22 38 37 314 271 310 302 282 183 49 204 208 271 265 277
105 96 83 97 111 124 132 137 137 146 153 149 136 136 174 142 136 70 87 150 114 125 126 113 113 124 131 268 6 70 344 239 334 111 151 269 297 288 323 353 333 207 312 332 245 293 282
109 116 117 122 127 121 125 141 142 148 153 159 128 97 36 113 77 62 160 163 119 139 128 120 134 119 141 144 237 234 245 285 172 309 332 229 204 298 312 102 289 324 338 308 267 223 306
118 120 121 120 123 136 143 146 146 153 156 129 105 93 12 76 106 175 142 176 120 143 97 86 103 97 128 109 5 257 237 220 167 154 343 299 287 289 285 291 228 286 292 269 273 319 259
140 127 126 126 129 138 142 145 152 161 161 139 93 106 337 156 146 155 206 159 117 117 115 115 99 106 145 129 337 218 261 273 358 28 325 339 303 312 336 8 59 304 300 277 261 249 284
135 131 130 133 140 143 150 144 148 145 170 95 109 115 20 44 106 169 137 128 106 82 76 77 105 81 81 14 251 251 281 308 333 282 257 298 252 179 217 242 327 337 0 343 292 272 323
151 140 136 140 147 142 133 125 135 135 152 91 34 169 175 185 229 165 102 114 117 113 88 91 63 111 146 227 240 206 257 312 315 63 55 81 267 226 255 281 196 40 11 11 17 334 26
148 152 147 140 137 136 131 129 122 113 127 81 130 120 45 98 127 109 68 127 130 115 117 114 117 181 184 208 209 239 199 213 264 344 8 356 273 310 278 194 230 60 17 30 18 1 51
152 155 150 147 146 148 138 119 114 110 137 119 348 59 99 331 102 101 179 146 153 116 46 96 150 164 236 244 207 218 206 202 219 314 306 267 275 316 271 349 306 51 5 23 39 24 0
163 157 156 149 145 149 147 129 87 95 147 132 124 103 90 52 95 120 131 103 126 110 126 104 88 129 280 326 297 234 225 220 204 228 204 256 232 242 280 320 29 100 39 357 59 43 24
164 159 155 150 143 141 127 118 81 90 128 93 86 87 119 101 99 89 105 110 84 57 72 117 35 21 320 12 6 354 357 91 98 134 167 200 341 284 313 325 148 71 28 340 349 47 26
168 160 160 149 135 135 133 123 99 103 86 77 74 63 93 120 43 95 97 99 123 97 54 61 339 342 42 68 55 79 113 94 344 352 31 97 265 263 343 296 308 22 328 328 279 96 5
172 170 165 149 140 143 146 140 102 85 76 97 72 37 82 102 260 124 118 133 108 102 122 313 352 359 50 55 74 98 119 225 95 34 5 352 10 17 334 310 105 4 320 315 12 330 353
179 165 151 145 146 141 134 113 100 91 76 78 107 31 110 98 57 24 92 117 88 101 131 221 53 342 34 64 97 218 105 45 28 110 139 27 334 345 316 326 323 5 29 51 332 34 357
167 157 150 148 139 137 135 115 100 91 81 83 66 347 1 82 131 1 319 341 68 163 129 43 149 144 161 90 32 93 31 21 108 241 7 125 351 325 7 41 53 49 47 42 8 6 10